Location: Unspecified
(33.9239°N, 118.0544°W)
Time: 10:53:11
(UTC-07:00)

Cosmos 2058 - Visible Passes

Search period start: 25 July 2016 00:00
Search period end: 04 August 2016 00:00
Orbit: 565 x 585 km, 82.5° (Epoch: 24 July)

Date Brightness Start Highest point End Pass type
(mag) Time Alt. Az. Time Alt. Az. Time Alt. Az.
26 Jul 6.2 04:23:05 10° NE 04:24:38 12° ENE 04:26:10 10° E visible
27 Jul 5.9 04:25:44 10° NE 04:28:22 16° ENE 04:30:59 10° ESE visible
28 Jul 5.5 04:28:48 10° NNE 04:32:05 22° ENE 04:35:20 10° SE visible
29 Jul 5.0 04:32:04 10° NNE 04:35:46 29° ENE 04:39:27 10° SE visible
30 Jul 4.3 04:35:27 10° N 04:39:27 40° E 04:43:24 10° SSE visible
31 Jul 3.6 04:38:56 10° N 04:43:06 57° E 04:47:14 10° SSE visible
01 Aug 3.0 04:42:29 10° N 04:46:44 81° E 04:50:55 10° S visible
02 Aug 2.8 04:46:08 10° N 04:50:20 72° W 04:54:31 10° S visible
03 Aug 3.1 04:49:51 10° NNW 04:53:57 50° W 04:57:52 11° SSW visible
